Location: *
(41.7492°S, 135.4150°W)
Time: 05:37:24
(UTC+00:00)

AO-27 - Pass Details

Date: 07 July 2022
Orbit: 786 x 796 km, 98.9° (Epoch: 12 August)

Event Time Altitude Azimuth Distance (km) Brightness Sun altitude
Rises 15:10:16 0° 42° (NE) 3,298 12.0 -14.1°
Reaches altitude 10° 15:12:47 10° 52° (NE) 2,375 11.3 -13.7°
Maximum altitude 15:17:25 33° 114° (ESE) 1,343 9.4 -12.9°
Drops below altitude 10° 15:22:04 10° 175° (S) 2,395 10.0 -12.1°
Sets 15:24:36 0° 184° (S) 3,331 10.7 -11.6°
